Location: Street
(51.1247°N, 2.7429°W)
Time: 09:17:40
(UTC+00:00)

Tiros 1 - Pass Details

Date: 04 December 2020
Orbit: 630 x 663 km, 48.4° (Epoch: 21 January)

Event Time Altitude Azimuth Distance (km) Brightness Sun altitude
Rises 19:00:11 0° 280° (W) 2,993 11.8 -26.3°
Reaches altitude 10° 19:02:52 10° 267° (W) 2,075 10.8 -26.7°
Maximum altitude 19:06:43 25° 213° (SSW) 1,336 9.0 -27.3°
Enters shadow 19:07:56 22° 190° (S) 1,423 9.0 -27.5°
Drops below altitude 10° 19:10:32 10° 159° (SSE) 2,052 - -27.9°
Sets 19:13:12 0° 146° (SE) 2,954 - -28.4°
